Location: Columbia
(38.9520°N, 92.3340°W)
Time: 06:23:38
(UTC-06:00)

Iridium 52 - Visible Passes

Search period start: 23 February 2018 00:00
Search period end: 05 March 2018 00:00
Orbit: 776 x 779 km, 86.4° (Epoch: 22 February)

Date Brightness Start Highest point End Pass type
(mag) Time Alt. Az. Time Alt. Az. Time Alt. Az.
23 Feb 6.3 06:17:18 10° S 06:22:29 79° E 06:27:43 10° N visible
23 Feb 7.4 18:29:17 10° NNW 18:34:12 44° W 18:39:08 10° SSW visible
24 Feb 7.5 05:44:13 10° SSE 05:49:04 41° E 05:53:57 10° NNE visible
25 Feb 8.6 05:11:48 10° SE 05:15:46 23° E 05:19:45 10° NNE visible
25 Feb 9.1 19:04:14 10° NW 19:07:26 17° W 19:10:37 10° WSW visible
26 Feb 9.4 04:40:42 10° E 04:42:36 12° ENE 04:44:30 10° NE visible
26 Feb 8.3 18:29:41 10° NNW 18:34:12 30° W 18:38:42 10° SW visible
27 Feb 6.6 05:43:59 10° SSE 05:49:06 61° E 05:54:15 10° N visible
28 Feb 7.9 05:11:09 10° SSE 05:15:44 32° E 05:20:20 10° NNE visible
28 Feb 9.5 19:05:55 10° WNW 19:07:18 11° WNW 19:08:43 10° W visible
01 Mar 8.9 04:39:05 10° ESE 04:42:29 18° E 04:45:53 10° NE visible
01 Mar 8.9 18:30:18 10° NNW 18:34:09 21° W 18:37:59 10° SW visible
02 Mar 6.1 05:43:58 10° S 05:49:11 89° E 05:54:25 10° N visible
03 Mar 7.1 05:10:46 10° SSE 05:15:44 47° E 05:20:44 10° NNE visible
04 Mar 8.3 04:38:12 10° SE 04:42:24 26° E 04:46:39 10° NNE visible
04 Mar 9.2 18:31:19 10° NW 18:34:04 15° WNW 18:36:48 10° WSW visible
